South Haven, MI

3:33 AM EDT on September 23, 2017 (GMT -0400)
South Haven

Weather History for KLWA - May, 2013

Change the Weather History Date:

Tuesday, May 21, 2013

  Actual Average (KBEH) Record (KBEH)
Temperature  
Mean Temperature 70 °F -  
Max Temperature 78 °F 72 °F 90 °F (1977)
Min Temperature 63 °F 47 °F 27 °F (2002)
Cooling Degree Days 6    
Growing Degree Days 20 (Base 50)    
Moisture  
Dew Point 62 °F    
Average Humidity 75    
Maximum Humidity 96    
Minimum Humidity 56    
Precipitation  
Precipitation 0.00 in - - ()
Sea Level Pressure  
Sea Level Pressure 29.74 in    
Wind  
Wind Speed 8 mph (SSW)    
Max Wind Speed 18 mph    
Max Gust Speed 32 mph    
Visibility 10 miles    
Events Rain    
Averages and records for this station are not official NWS values.
T = Trace of Precipitation, MM = Missing Value Source: NWS Daily Summary

Daily Weather History Graph

Daily Weather History Graph

Search for Another Location

Airport or City:

Trip Planner

Search our weather history database for the weather conditions in past years. The results will help you decide how hot, cold, wet, or windy it might be!

Date:

Astronomy

May. 21, 2013 Rise Set
Actual Time 6:17 AM EDT 9:06 PM EDT
Civil Twilight 5:45 AM EDT 9:38 PM EDT
Nautical Twilight 5:03 AM EDT 10:20 PM EDT
Astronomical Twilight 4:15 AM EDT 11:08 PM EDT
Moon 5:15 PM EDT (5/21) 3:50 AM EDT (5/21)
Length of Visible Light 15h 53m
Length of Day
14h 48m
Waxing Gibbous, 84% of the Moon is Illuminated
May 21
Waxing Gibbous
May 25
Full
May 31
Last Quarter
Jun 8
New
Jun 16
First Quarter

Hourly Weather History & Observations

Time (EDT) Temp. Dew Point Humidity Pressure Visibility Wind Dir Wind Speed Gust Speed Precip Events Conditions
12:15 AM 78.1 °F 62.6 °F 59% 29.77 in 10.0 mi South 10.4 mph 17.3 mph N/A   Clear
12:35 AM 77.9 °F 62.1 °F 58% 29.77 in 10.0 mi South 5.8 mph - N/A   Clear
12:55 AM 77.2 °F 62.6 °F 61% 29.77 in 10.0 mi South 4.6 mph - N/A   Clear
1:15 AM 76.1 °F 63.0 °F 64% 29.77 in 10.0 mi South 5.8 mph - N/A   Scattered Clouds
1:35 AM 76.1 °F 63.5 °F 65% 29.75 in 10.0 mi SSE 4.6 mph - N/A   Scattered Clouds
1:55 AM 75.7 °F 63.5 °F 66% 29.74 in 10.0 mi SSE 8.1 mph - N/A   Scattered Clouds
2:15 AM 65.5 °F 61.3 °F 86% 29.82 in 7.0 mi WSW 18.4 mph 32.2 mph N/A Rain Rain
2:35 AM 63.5 °F 61.7 °F 94% 29.80 in 4.0 mi SW 8.1 mph 20.7 mph N/A Rain Rain
2:55 AM 64.0 °F 62.1 °F 93% 29.79 in 10.0 mi WSW 5.8 mph - N/A Rain Light Rain
3:15 AM 63.9 °F 62.2 °F 94% 29.77 in 5.0 mi WSW 3.5 mph - N/A Rain Rain
3:35 AM 63.9 °F 62.6 °F 96% 29.76 in 5.0 mi Calm Calm - N/A Rain Heavy Rain
3:55 AM 63.9 °F 62.6 °F 96% 29.76 in 3.0 mi SSW 4.6 mph - N/A Rain Heavy Rain
4:15 AM 63.7 °F 62.1 °F 94% 29.77 in 7.0 mi SSW 6.9 mph - N/A Rain Rain
4:35 AM 63.5 °F 61.9 °F 94% 29.74 in 4.0 mi ESE 5.8 mph - N/A Rain Heavy Rain
4:55 AM 63.5 °F 62.1 °F 95% 29.71 in 10.0 mi ESE 6.9 mph - N/A Rain Light Rain
5:15 AM 63.5 °F 62.1 °F 95% 29.72 in 10.0 mi SE 4.6 mph - N/A   Overcast
5:35 AM 63.5 °F 62.1 °F 95% 29.74 in 10.0 mi SSE 5.8 mph - N/A   Overcast
5:55 AM 63.5 °F 62.1 °F 95% 29.74 in 10.0 mi SE 5.8 mph - N/A Rain Light Rain
6:15 AM 63.5 °F 62.1 °F 95% 29.76 in 10.0 mi South 5.8 mph - N/A   Scattered Clouds
6:35 AM 63.5 °F 61.9 °F 94% 29.75 in 10.0 mi SSE 4.6 mph - N/A   Scattered Clouds
6:55 AM 63.0 °F 61.7 °F 96% 29.74 in 10.0 mi SSE 4.6 mph - N/A   Clear
7:15 AM 63.5 °F 62.1 °F 95% 29.75 in 10.0 mi South 4.6 mph - N/A   Clear
7:35 AM 64.0 °F 62.4 °F 94% 29.75 in 10.0 mi South 8.1 mph - N/A   Clear
7:55 AM 64.9 °F 62.8 °F 93% 29.75 in 10.0 mi South 8.1 mph - N/A   Clear
8:15 AM 66.4 °F 63.1 °F 89% 29.75 in 10.0 mi South 9.2 mph - N/A   Clear
8:35 AM 66.6 °F 62.6 °F 87% 29.75 in 10.0 mi South 12.7 mph 18.4 mph N/A   Clear
8:55 AM 66.7 °F 62.1 °F 85% 29.75 in 10.0 mi South 10.4 mph - N/A   Clear
9:15 AM 67.5 °F 62.2 °F 83% 29.75 in 10.0 mi South 10.4 mph - N/A   Clear
9:35 AM 68.0 °F 61.9 °F 81% 29.76 in 10.0 mi SSW 9.2 mph - N/A   Clear
9:55 AM 68.2 °F 62.1 °F 81% 29.76 in 10.0 mi South 8.1 mph - N/A   Clear
10:15 AM 69.1 °F 62.2 °F 79% 29.77 in 10.0 mi South 8.1 mph 16.1 mph N/A   Clear
10:35 AM 70.3 °F 62.4 °F 76% 29.76 in 10.0 mi South 9.2 mph - N/A   Clear
10:55 AM 71.4 °F 61.5 °F 71% 29.76 in 10.0 mi SSW 13.8 mph 19.6 mph N/A   Scattered Clouds
11:15 AM 72.9 °F 61.9 °F 68% 29.76 in 10.0 mi SSW 11.5 mph 17.3 mph N/A   Mostly Cloudy
11:35 AM 74.7 °F 61.5 °F 63% 29.75 in 10.0 mi South 11.5 mph 17.3 mph N/A   Scattered Clouds
11:55 AM 73.9 °F 61.7 °F 65% 29.75 in 10.0 mi SW 11.5 mph 20.7 mph N/A   Scattered Clouds
12:15 PM 74.5 °F 61.9 °F 65% 29.75 in 10.0 mi SSW 11.5 mph 17.3 mph N/A   Mostly Cloudy
12:35 PM 75.4 °F 62.2 °F 64% 29.75 in 10.0 mi SSW 10.4 mph 19.6 mph N/A   Scattered Clouds
12:55 PM 75.6 °F 61.5 °F 62% 29.75 in 10.0 mi SSW 10.4 mph 20.7 mph N/A   Scattered Clouds
1:15 PM 76.6 °F 62.4 °F 61% 29.75 in 10.0 mi SW 11.5 mph 18.4 mph N/A   Scattered Clouds
1:36 PM 72.5 °F 61.0 °F 67% 29.76 in 10.0 mi WSW 11.5 mph 21.9 mph N/A   Mostly Cloudy
1:55 PM 73.8 °F 61.5 °F 65% 29.75 in 10.0 mi SW 11.5 mph 17.3 mph N/A   Overcast
2:15 PM 73.6 °F 61.9 °F 67% 29.75 in 10.0 mi SW 9.2 mph 18.4 mph N/A   Overcast
2:35 PM 75.0 °F 61.7 °F 63% 29.74 in 10.0 mi SW 15.0 mph 19.6 mph N/A   Mostly Cloudy
2:55 PM 75.9 °F 63.0 °F 64% 29.75 in 10.0 mi WSW 9.2 mph 16.1 mph N/A   Scattered Clouds
3:15 PM 77.0 °F 62.8 °F 61% 29.74 in 10.0 mi SW 13.8 mph 24.2 mph N/A   Clear
3:35 PM 77.9 °F 61.7 °F 57% 29.74 in 10.0 mi SW 13.8 mph 20.7 mph N/A   Clear
3:55 PM 78.1 °F 61.3 °F 56% 29.74 in 10.0 mi SW 11.5 mph 20.7 mph N/A   Clear
4:15 PM 78.4 °F 62.6 °F 58% 29.73 in 10.0 mi SW 12.7 mph 19.6 mph N/A   Clear
4:35 PM 77.9 °F 62.4 °F 59% 29.73 in 10.0 mi WSW 10.4 mph 18.4 mph N/A   Clear
4:55 PM 78.3 °F 62.8 °F 59% 29.72 in 10.0 mi WSW 12.7 mph 17.3 mph N/A   Clear
5:15 PM 78.1 °F 62.8 °F 59% 29.72 in 10.0 mi WSW 10.4 mph 19.6 mph N/A   Clear
5:35 PM 78.4 °F 62.6 °F 58% 29.72 in 10.0 mi SW 6.9 mph - N/A   Clear
5:55 PM 78.1 °F 62.8 °F 59% 29.72 in 10.0 mi WSW 10.4 mph - N/A   Clear
6:15 PM 77.9 °F 62.6 °F 59% 29.72 in 10.0 mi WSW 11.5 mph 16.1 mph N/A   Clear
6:35 PM 76.8 °F 62.1 °F 60% 29.72 in 10.0 mi SW 9.2 mph - N/A   Clear
6:55 PM 76.5 °F 62.1 °F 61% 29.71 in 10.0 mi SW 10.4 mph - N/A   Clear
7:15 PM 77.5 °F 62.6 °F 60% 29.71 in 10.0 mi WSW 5.8 mph - N/A   Clear
7:35 PM 77.4 °F 62.1 °F 59% 29.71 in 10.0 mi SW 10.4 mph - N/A   Clear
7:55 PM 77.0 °F 62.2 °F 60% 29.70 in 10.0 mi SW 6.9 mph - N/A   Clear
8:15 PM 76.5 °F 62.1 °F 61% 29.70 in 10.0 mi SW 4.6 mph - N/A   Clear
8:35 PM 76.1 °F 62.2 °F 62% 29.70 in 10.0 mi SW 3.5 mph - N/A   Clear
8:55 PM 74.7 °F 62.6 °F 66% 29.70 in 10.0 mi Calm Calm - N/A   Clear
9:15 PM 73.6 °F 63.0 °F 69% 29.71 in 10.0 mi Calm Calm - N/A   Clear
9:35 PM 72.9 °F 62.8 °F 71% 29.72 in 10.0 mi Calm Calm - N/A   Clear
9:55 PM 70.3 °F 63.1 °F 78% 29.72 in 10.0 mi Calm Calm - N/A   Clear
10:15 PM 68.9 °F 63.0 °F 81% 29.73 in 10.0 mi Calm Calm - N/A   Clear
10:35 PM 67.1 °F 63.0 °F 87% 29.73 in 10.0 mi Calm Calm - N/A   Clear
10:54 PM 66.9 °F 62.8 °F 87% 29.73 in 10.0 mi Calm Calm - N/A   Clear
11:15 PM 67.1 °F 62.2 °F 84% 29.73 in 10.0 mi Calm Calm - N/A   Clear
11:35 PM 66.4 °F 62.2 °F 86% 29.72 in 10.0 mi Calm Calm - N/A   Clear
11:55 PM 66.6 °F 62.4 °F 86% 29.72 in 10.0 mi Calm Calm - N/A   Clear